Regional Weather Roundup
Issued by NWS

Home | Current Version | Previous Version | Graphics & Text | Print | Product List | Glossary On
Versions: 1 2 3 4 5 6 7 8 9 10 11 12 13 14 15 16 17 18 19 20 21 22 23 24 25 26 27 28 29 30 31 32 33 34 35 36 37 38 39 40 41 42 43 44 45 46 47 48 49 50
000
ASUS43 KDMX 270301
RWRIA

WEATHER ROUNDUP FOR IOWA
NATIONAL WEATHER SERVICE DES MOINES IA
1000 PM CDT MON JUN 26 2017

NOTE: "FAIR" INDICATES FEW OR NO CLOUDS BELOW 12,000 FEET WITH NO
SIGNIFICANT WEATHER AND/OR OBSTRUCTIONS TO VISIBILITY.

* - THESE STATIONS ARE NOT NWS STATIONS...THUS NOT UNDER NWS
QUALITY CONTROL.  THEY ALSO DO NOT REPORT WEATHER SUCH
AS PRECIPITATION OR FOG.

IAZ001>003-012>014-020>022-031>034-043>046-270400-
   NORTHWEST IOWA

CITY           SKY/WX    TMP DP  RH WIND       PRES   REMARKS
CARROLL *      CLEAR     59  48  67 NE3       30.14R
CHEROKEE *     CLEAR     58  44  61 CALM      30.15R
DENISON *      CLEAR     61  46  59 CALM      30.15R
LE MARS *      CLEAR     57  48  72 CALM      30.15R
ORANGE CITY *  CLEAR     64  45  48 CALM      30.15R
SHELDON *      CLEAR     55  50  82 E5        30.13S
SIOUX CITY     CLEAR     65  40  39 NE5       30.13S
SPENCER        CLEAR     57  45  64 CALM      30.15R
STORM LAKE *   CLEAR     61  43  51 N5        30.15R
$$

IAZ055>058-069>071-079>083-090>094-270400-
   SOUTHWEST IOWA

CITY           SKY/WX    TMP DP  RH WIND       PRES   REMARKS
ATLANTIC *     CLEAR     59  50  72 N5        30.13R
AUDUBON *      CLEAR     57  52  82 CALM      30.15R
CLARINDA *     CLEAR     61  61 100 CALM      30.14R
COUNCIL BLFS * CLEAR     64  50  59 NE7       30.13R
CRESTON *      CLEAR     63  50  63 NE9       30.14R
HARLAN  *      CLEAR     57  50  77 CALM      30.17R
LAMONI         PTCLDY    64  53  67 CALM      30.12R
RED OAK *      CLEAR     61  55  82 NE3       30.13R
SHENANDOAH *   PTCLDY    63  61  94 CALM      30.12R
$$

IAZ047>049-059>061-072>074-084-270400-
   CENTRAL IOWA

CITY           SKY/WX    TMP DP  RH WIND       PRES   REMARKS
AMES           CLEAR     62  46  55 N5        30.14R
ANKENY *       CLEAR     57  48  72 NE3       30.14R
BOONE *        CLEAR     59  45  58 NE7       30.13R
CHARITON *     CLEAR     61  50  67 NE6       30.12R
DES MOINES     CLEAR     66  43  43 N5        30.13R
GRINNELL*      CLEAR     60  43  52 NE6       30.14R
KNOXVILLE *    CLEAR     63  46  55 NE3       30.11R
MARSHALLTOWN   CLEAR     58  46  64 NE5       30.13R
NEWTON *       CLEAR     61  45  55 NE7       30.14R
PELLA *        CLEAR     58  46  66 CALM      30.14R
PERRY *          N/A     58  48  70 N3        30.14R
$$

IAZ004>006-015-016-023>025-035-036-270400-
   NORTH CENTRAL IOWA

CITY           SKY/WX    TMP DP  RH WIND       PRES   REMARKS
ALGONA *       CLEAR     59  45  58 CALM      30.15R
CLARION *        N/A     57  46  67 NE5       30.14R
ESTHERVILLE    CLEAR     56  47  71 CALM      30.14R
FORT DODGE *   CLEAR     57  41  54 CALM      30.15R
MASON CITY     CLEAR     55  42  61 W3        30.15R
FOREST CITY *    N/A     54  30  40 CALM      30.14R
WEBSTER CITY * CLEAR     55  46  71 CALM      30.12R
IOWA FALLS *     N/A     59  46  62 CALM      30.15R
$$

IAZ007>011-017>019-026>030-037>042-050>054-066-270400-
   NORTHEAST IOWA

CITY           SKY/WX    TMP DP  RH WIND       PRES   REMARKS
CEDAR RAPIDS   CLEAR     59  46  62 N6        30.12R
CHARLES CITY * CLEAR     57  46  67 NW3       30.14R
CLINTON *      CLEAR     57  46  66 N6        30.12R
DECORAH *      CLEAR     57  46  67 CALM      30.11R
DUBUQUE        CLEAR     56  44  64 NW5       30.12R
MONTICELLO *   CLEAR     54  50  87 CALM      30.12R
OELWEIN *      CLEAR     57  46  67 W3        30.13R
WATERLOO       CLEAR     56  46  69 CALM      30.12R
$$

IAZ064-065-067-068-078-270400-
   EAST CENTRAL IOWA

CITY           SKY/WX    TMP DP  RH WIND       PRES   REMARKS
DAVENPORT      CLEAR     56  47  71 N6        30.12R
IOWA CITY      CLEAR     63  45  51 N3        30.14R
MT. PLEASANT * MOCLDY    60  47  61 N6        30.12R
MUSCATINE *    CLEAR     61  46  59 CALM      30.12R
QUAD CITIES    CLEAR     62  45  53 CALM      30.11R
$$

IAZ062-063-075>077-085>089-095>099-270400-
   SOUTHEAST IOWA

CITY           SKY/WX    TMP DP  RH WIND       PRES   REMARKS
BURLINGTON     PTCLDY    59  56  89 N6        30.11R
FAIRFIELD *    PTCLDY    59  48  67 N7        30.12R
FORT MADISON * CLEAR     63  55  77 CALM      30.12R
KEOKUK *       MOCLDY    63  55  77 CALM      30.10R
OSKALOOSA *      N/A     57  47  70 N6        30.12R
OTTUMWA        CLEAR     62  46  55 N6        30.12R
$$

ABBREVIATIONS USED IN REMARKS
   TC - TEMPERATURES IN CELSIUS
  WCI - WIND CHILL INDEX
   HX - HEAT INDEX
  VSB - VISIBILITY
$$





USA.gov is the U.S. government's official web portal to all federal, state and local government web resources and services.